User: anonymous   Login
Location: Hertford
(51.8000°N, 0.0667°W)
Time: 06:45:13
(UTC+00:00)
Language:

THORAD AGENA D DEB - Orbit

View from above orbital plane
View from above orbital plane
View from above satellite
View from above satellite

Ground track
Ground track

The orbit data is extracted from the following two-line orbital elements,

1 42537U 70025ST  21297.58138874  .00000371  00000-0  41090-3 0  9998
2 42537 100.0296  63.9226 0006659 302.9457  57.1052 13.79107423818661
Epoch (UTC): 24 October 2021 13:57:11
Eccentricity: 0.0006659
inclination: 100.0296°
perigee height: 962 km
apogee height: 972 km
right ascension of ascending node: 63.9226°
argument of perigee: 302.9457°
revolutions per day: 13.79107423
mean anomaly at epoch: 57.1052°
orbit number at epoch: 81866

The dashed part of the orbit path shows where the satellite is in the earth's shadow,  

DLR